Tracking 25620 objects as of 18-May-2022
HD Live streaming from Space Station
objects crossing your sky now

COSMOS 1375 DEB

Track COSMOS 1375 DEB now!
10-day predictions


NORAD ID: 16379
Int'l Code: 1982-055T
Perigee: 971.3 km
Apogee: 985.2 km
Inclination: 65.8 °
Period: 104.5 minutes
Semi major axis: 7349 km
RCS: 0.1296 m2 (medium)
Launch date: June 6, 1982
Source: Commonwealth of Independent States (former USSR) (CIS)
Launch site: PLESETSK MISSILE AND SPACE COMPLEX (PKMTR)

Note: This is SATELLITE DEBRIS
aabbcc
Your satellite tracking list
Your tracking list is empty




NASA's NSSDC Master Catalog

Two Line Element Set (TLE):
1 16379U 82055T   22137.88833890 -.00000042  00000-0  38695-4 0  9990
2 16379  65.8373 329.9815 0009464 138.5242 330.6390 13.77969875419612
Source of the keplerian elements: AFSPC